Location: Caltech
(34.1382°N, 118.1253°W)
Time: 12:16:05
(UTC-08:00)

AO-7 - Visible Passes

Search period start: 21 November 2014 00:00
Search period end: 01 December 2014 00:00
Orbit: 1440 x 1459 km, 101.5° (Epoch: 21 November)

Date Brightness Start Highest point End Pass type
(mag) Time Alt. Az. Time Alt. Az. Time Alt. Az.
21 Nov ? 02:41:39 10° NE 02:46:51 18° E 02:52:01 10° SE visible
21 Nov ? 04:31:56 10° NNE 04:40:18 81° WNW 04:48:39 10° SSW visible
21 Nov ? 17:25:11 10° WSW 17:28:23 13° W 17:31:37 10° WNW visible
22 Nov ? 03:32:29 10° NNE 03:40:20 43° E 03:48:08 10° S visible
22 Nov ? 05:25:26 10° N 05:32:54 38° WNW 05:40:22 10° SW visible
23 Nov ? 02:35:19 10° ENE 02:39:50 15° E 02:44:20 10° SE visible
23 Nov ? 04:25:00 10° NNE 04:33:24 88° WNW 04:41:46 10° SSW visible
23 Nov ? 17:17:10 10° WSW 17:21:21 15° W 17:25:34 10° WNW visible
24 Nov ? 03:25:42 10° NNE 03:33:22 39° E 03:40:59 10° SSE visible
24 Nov ? 05:18:23 10° N 05:26:03 42° WNW 05:33:42 10° SW visible
25 Nov ? 02:29:10 10° ENE 02:32:48 13° E 02:36:25 10° ESE visible
25 Nov ? 04:18:04 10° NNE 04:26:29 85° ESE 04:34:52 10° SSW visible
25 Nov ? 17:09:25 10° SW 17:14:19 17° W 17:19:17 10° NW visible
26 Nov ? 03:18:56 10° NE 03:26:24 35° E 03:33:48 10° SSE visible
26 Nov ? 05:11:22 10° N 05:19:11 46° WNW 05:27:00 10° SW visible
27 Nov ? 02:23:26 10° ENE 02:25:46 11° E 02:28:05 10° ESE visible
27 Nov ? 04:11:10 10° NNE 04:19:34 78° ESE 04:27:55 10° SSW visible
27 Nov ? 06:05:37 10° NNW 06:11:26 21° WNW 06:17:15 10° WSW visible
27 Nov ? 17:01:48 10° SW 17:07:18 19° W 17:12:51 10° NW visible
28 Nov ? 03:12:13 10° NE 03:19:25 31° E 03:26:34 10° SSE visible
28 Nov ? 05:04:21 10° N 05:12:19 51° WNW 05:20:17 10° SW visible
29 Nov ? 04:04:16 10° NNE 04:12:38 71° ESE 04:20:57 10° S visible
29 Nov ? 05:58:27 10° N 06:04:37 24° WNW 06:10:49 10° WSW visible
30 Nov ? 03:05:31 10° NE 03:12:26 28° E 03:19:17 10° SSE visible
30 Nov ? 04:57:21 10° N 05:05:27 56° WNW 05:13:32 10° SW visible
